PRIVATE WETTERSTATION BILLIGHEIM-ALLFELD                       ZURCK
Wetterdaten: Donnerstag, 03.04.2014
Datum Zeit Temp. A. Temp. A. min Temp. A. max Feuchte A. Luftdruck Regen Wind Richtung Richtung Sonnenschein ET Solar Taupunkt Windchill Windben Empfang
03.04.2014 00:00 10,9 C 10,9 C 11,2 C 72 % 1004,2 hPa 0,0 l/m 1,6 km/h (1 Bft) N-NW 337 0 min 0,025 mm 0 W/m 6,1 C 10,9 C 4,8 km/h (1 Bft) 100 %
03.04.2014 00:10 10,7 C 10,7 C 10,9 C 73 % 1004,2 hPa 0,0 l/m 1,6 km/h (1 Bft) N-NW 337 0 min 0,000 mm 0 W/m 6,1 C 10,7 C 4,8 km/h (1 Bft) 100 %
03.04.2014 00:20 10,4 C 10,4 C 10,7 C 73 % 1004,2 hPa 0,0 l/m 0,0 km/h (0 Bft) N-NO 22 0 min 0,000 mm 0 W/m 5,8 C 10,4 C 4,8 km/h (1 Bft) 98 %
03.04.2014 00:30 10,5 C 10,5 C 10,6 C 73 % 1004,2 hPa 0,0 l/m 1,6 km/h (1 Bft) NW 315 0 min 0,000 mm 0 W/m 5,9 C 10,5 C 8,0 km/h (2 Bft) 99 %
03.04.2014 00:40 10,2 C 10,2 C 10,5 C 74 % 1004,2 hPa 0,0 l/m 0,0 km/h (0 Bft) N-NO 22 0 min 0,000 mm 0 W/m 5,8 C 10,2 C 4,8 km/h (1 Bft) 91 %
03.04.2014 00:50 10,1 C 10,1 C 10,2 C 75 % 1004,2 hPa 0,0 l/m 0,0 km/h (0 Bft) N 360 0 min 0,000 mm 0 W/m 5,9 C 10,1 C 4,8 km/h (1 Bft) 100 %
03.04.2014 01:00 9,9 C 9,9 C 10,1 C 74 % 1004,1 hPa 0,0 l/m 0,0 km/h (0 Bft) N 360 0 min 0,025 mm 0 W/m 5,5 C 9,9 C 3,2 km/h (1 Bft) 100 %
03.04.2014 01:10 9,7 C 9,7 C 9,9 C 75 % 1004,1 hPa 0,0 l/m 0,0 km/h (0 Bft) N 360 0 min 0,000 mm 0 W/m 5,5 C 9,7 C 3,2 km/h (1 Bft) 100 %
03.04.2014 01:20 9,7 C 9,7 C 9,7 C 75 % 1004,1 hPa 0,0 l/m 0,0 km/h (0 Bft) N 360 0 min 0,000 mm 0 W/m 5,5 C 9,7 C 1,6 km/h (1 Bft) 100 %
03.04.2014 01:30 9,6 C 9,6 C 9,7 C 76 % 1004,2 hPa 0,0 l/m 0,0 km/h (0 Bft) N 360 0 min 0,000 mm 0 W/m 5,6 C 9,6 C 1,6 km/h (1 Bft) 100 %
03.04.2014 01:40 9,4 C 9,4 C 9,6 C 76 % 1004,2 hPa 0,0 l/m 0,0 km/h (0 Bft) N 0 0 min 0,000 mm 0 W/m 5,4 C 9,4 C 0,0 km/h (0 Bft) 99 %
03.04.2014 01:50 9,3 C 9,3 C 9,4 C 76 % 1004,2 hPa 0,0 l/m 0,0 km/h (0 Bft) N 360 0 min 0,000 mm 0 W/m 5,3 C 9,3 C 1,6 km/h (1 Bft) 100 %
03.04.2014 02:00 9,2 C 9,2 C 9,3 C 77 % 1004,2 hPa 0,0 l/m 0,0 km/h (0 Bft) N 0 0 min 0,025 mm 0 W/m 5,4 C 9,2 C 0,0 km/h (0 Bft) 100 %
03.04.2014 02:10 8,9 C 8,9 C 9,2 C 78 % 1004,1 hPa 0,0 l/m 0,0 km/h (0 Bft) N 360 0 min 0,000 mm 0 W/m 5,3 C 8,9 C 3,2 km/h (1 Bft) 100 %
03.04.2014 02:20 8,7 C 8,7 C 8,9 C 78 % 1004,0 hPa 0,0 l/m 0,0 km/h (0 Bft) N 0 0 min 0,000 mm 0 W/m 5,1 C 8,7 C 0,0 km/h (0 Bft) 100 %
03.04.2014 02:30 8,5 C 8,5 C 8,7 C 79 % 1004,0 hPa 0,0 l/m 0,0 km/h (0 Bft) N 360 0 min 0,000 mm 0 W/m 5,1 C 8,5 C 1,6 km/h (1 Bft) 100 %
03.04.2014 02:40 8,4 C 8,4 C 8,6 C 80 % 1004,1 hPa 0,0 l/m 0,0 km/h (0 Bft) N 360 0 min 0,000 mm 0 W/m 5,2 C 8,4 C 3,2 km/h (1 Bft) 99 %
03.04.2014 02:50 8,2 C 8,2 C 8,4 C 80 % 1004,0 hPa 0,0 l/m 0,0 km/h (0 Bft) N 360 0 min 0,000 mm 0 W/m 5,0 C 8,2 C 1,6 km/h (1 Bft) 100 %
03.04.2014 03:00 8,1 C 8,1 C 8,2 C 81 % 1004,1 hPa 0,0 l/m 0,0 km/h (0 Bft) N 360 0 min 0,025 mm 0 W/m 5,0 C 8,1 C 1,6 km/h (1 Bft) 100 %
03.04.2014 03:10 8,1 C 8,1 C 8,1 C 82 % 1004,1 hPa 0,0 l/m 0,0 km/h (0 Bft) N 360 0 min 0,000 mm 0 W/m 5,2 C 8,1 C 1,6 km/h (1 Bft) 100 %
03.04.2014 03:20 8,1 C 8,0 C 8,1 C 82 % 1004,0 hPa 0,0 l/m 0,0 km/h (0 Bft) N 0 0 min 0,000 mm 0 W/m 5,2 C 8,1 C 0,0 km/h (0 Bft) 100 %
03.04.2014 03:30 8,2 C 8,1 C 8,3 C 81 % 1003,9 hPa 0,0 l/m 0,0 km/h (0 Bft) N 0 0 min 0,000 mm 0 W/m 5,1 C 8,2 C 0,0 km/h (0 Bft) 100 %
03.04.2014 03:40 8,2 C 8,2 C 8,3 C 81 % 1003,9 hPa 0,0 l/m 0,0 km/h (0 Bft) N 360 0 min 0,000 mm 0 W/m 5,1 C 8,2 C 1,6 km/h (1 Bft) 100 %
03.04.2014 03:50 7,9 C 7,9 C 8,2 C 81 % 1003,8 hPa 0,0 l/m 0,0 km/h (0 Bft) N 360 0 min 0,000 mm 0 W/m 4,8 C 7,9 C 3,2 km/h (1 Bft) 100 %
03.04.2014 04:00 7,7 C 7,7 C 7,9 C 82 % 1003,7 hPa 0,0 l/m 0,0 km/h (0 Bft) N 0 0 min 0,000 mm 0 W/m 4,8 C 7,7 C 0,0 km/h (0 Bft) 100 %
03.04.2014 04:10 7,6 C 7,6 C 7,7 C 82 % 1003,6 hPa 0,0 l/m 0,0 km/h (0 Bft) N 360 0 min 0,000 mm 0 W/m 4,7 C 7,6 C 1,6 km/h (1 Bft) 99 %
03.04.2014 04:20 7,4 C 7,4 C 7,6 C 83 % 1003,6 hPa 0,0 l/m 0,0 km/h (0 Bft) N 360 0 min 0,000 mm 0 W/m 4,7 C 7,4 C 1,6 km/h (1 Bft) 100 %
03.04.2014 04:30 7,3 C 7,3 C 7,4 C 83 % 1003,5 hPa 0,0 l/m 0,0 km/h (0 Bft) N 360 0 min 0,000 mm 0 W/m 4,6 C 7,3 C 3,2 km/h (1 Bft) 100 %
03.04.2014 04:40 7,1 C 7,1 C 7,3 C 84 % 1003,7 hPa 0,0 l/m 0,0 km/h (0 Bft) N 0 0 min 0,000 mm 0 W/m 4,6 C 7,1 C 0,0 km/h (0 Bft) 100 %
03.04.2014 04:50 6,9 C 6,9 C 7,1 C 84 % 1003,7 hPa 0,0 l/m 0,0 km/h (0 Bft) N 360 0 min 0,000 mm 0 W/m 4,4 C 6,9 C 1,6 km/h (1 Bft) 100 %
03.04.2014 05:00 6,8 C 6,8 C 6,9 C 85 % 1003,9 hPa 0,0 l/m 0,0 km/h (0 Bft) N 360 0 min 0,000 mm 0 W/m 4,5 C 6,8 C 3,2 km/h (1 Bft) 100 %
03.04.2014 05:10 6,7 C 6,7 C 6,8 C 85 % 1003,7 hPa 0,0 l/m 0,0 km/h (0 Bft) N 360 0 min 0,000 mm 0 W/m 4,4 C 6,7 C 1,6 km/h (1 Bft) 100 %
03.04.2014 05:20 6,8 C 6,7 C 6,8 C 86 % 1003,6 hPa 0,0 l/m 0,0 km/h (0 Bft) N 360 0 min 0,000 mm 0 W/m 4,6 C 6,8 C 3,2 km/h (1 Bft) 100 %
03.04.2014 05:30 6,9 C 6,8 C 6,9 C 85 % 1003,6 hPa 0,0 l/m 0,0 km/h (0 Bft) N 0 0 min 0,000 mm 0 W/m 4,6 C 6,9 C 0,0 km/h (0 Bft) 100 %
03.04.2014 05:40 6,9 C 6,9 C 6,9 C 84 % 1003,8 hPa 0,0 l/m 1,6 km/h (1 Bft) N 360 0 min 0,000 mm 0 W/m 4,4 C 6,9 C 4,8 km/h (1 Bft) 100 %
03.04.2014 05:50 6,8 C 6,7 C 6,9 C 84 % 1003,8 hPa 0,0 l/m 0,0 km/h (0 Bft) N 360 0 min 0,000 mm 0 W/m 4,3 C 6,8 C 3,2 km/h (1 Bft) 99 %
03.04.2014 06:00 6,6 C 6,6 C 6,7 C 85 % 1003,7 hPa 0,0 l/m 0,0 km/h (0 Bft) N 360 0 min 0,000 mm 0 W/m 4,3 C 6,6 C 3,2 km/h (1 Bft) 100 %
03.04.2014 06:10 6,5 C 6,5 C 6,6 C 85 % 1003,7 hPa 0,0 l/m 0,0 km/h (0 Bft) N 0 0 min 0,000 mm 0 W/m 4,2 C 6,5 C 0,0 km/h (0 Bft) 100 %
03.04.2014 06:20 6,4 C 6,4 C 6,5 C 85 % 1003,7 hPa 0,0 l/m 0,0 km/h (0 Bft) N 360 0 min 0,000 mm 0 W/m 4,1 C 6,4 C 1,6 km/h (1 Bft) 99 %
03.04.2014 06:30 6,3 C 6,3 C 6,4 C 85 % 1003,6 hPa 0,0 l/m 0,0 km/h (0 Bft) N 360 0 min 0,000 mm 0 W/m 4,0 C 6,3 C 1,6 km/h (1 Bft) 100 %
03.04.2014 06:40 6,1 C 6,1 C 6,3 C 86 % 1003,8 hPa 0,0 l/m 0,0 km/h (0 Bft) N 360 0 min 0,000 mm 0 W/m 3,9 C 6,1 C 3,2 km/h (1 Bft) 100 %
03.04.2014 06:50 6,1 C 6,1 C 6,1 C 86 % 1003,8 hPa 0,0 l/m 0,0 km/h (0 Bft) N 360 0 min 0,000 mm 0 W/m 3,9 C 6,1 C 3,2 km/h (1 Bft) 100 %
03.04.2014 07:00 6,0 C 6,0 C 6,1 C 86 % 1003,8 hPa 0,0 l/m 0,0 km/h (0 Bft) N 360 0 min 0,000 mm 0 W/m 3,8 C 6,0 C 1,6 km/h (1 Bft) 100 %
03.04.2014 07:10 5,9 C 5,9 C 6,0 C 86 % 1003,9 hPa 0,0 l/m 0,0 km/h (0 Bft) N 360 0 min 0,000 mm 7 W/m 3,7 C 5,9 C 1,6 km/h (1 Bft) 100 %
03.04.2014 07:20 5,9 C 5,9 C 5,9 C 86 % 1004,0 hPa 0,0 l/m 0,0 km/h (0 Bft) N 360 0 min 0,000 mm 23 W/m 3,7 C 5,9 C 3,2 km/h (1 Bft) 100 %
03.04.2014 07:30 6,1 C 5,9 C 6,1 C 87 % 1004,2 hPa 0,0 l/m 0,0 km/h (0 Bft) N 360 0 min 0,000 mm 40 W/m 4,1 C 6,1 C 1,6 km/h (1 Bft) 100 %
03.04.2014 07:40 6,2 C 6,1 C 6,2 C 87 % 1004,5 hPa 0,0 l/m 0,0 km/h (0 Bft) N 360 0 min 0,000 mm 54 W/m 4,2 C 6,2 C 1,6 km/h (1 Bft) 100 %
03.04.2014 07:50 6,4 C 6,2 C 6,4 C 87 % 1004,7 hPa 0,0 l/m 0,0 km/h (0 Bft) N 360 0 min 0,000 mm 49 W/m 4,4 C 6,4 C 1,6 km/h (1 Bft) 91 %
03.04.2014 08:00 6,8 C 6,4 C 6,8 C 86 % 1004,4 hPa 0,0 l/m 1,6 km/h (1 Bft) N 360 0 min 0,025 mm 56 W/m 4,6 C 6,8 C 4,8 km/h (1 Bft) 100 %
03.04.2014 08:10 7,4 C 6,8 C 7,4 C 87 % 1004,4 hPa 0,0 l/m 1,6 km/h (1 Bft) N-NO 22 0 min 0,000 mm 74 W/m 5,4 C 7,4 C 4,8 km/h (1 Bft) 100 %
03.04.2014 08:20 7,7 C 7,4 C 7,7 C 85 % 1004,6 hPa 0,0 l/m 1,6 km/h (1 Bft) NO 45 0 min 0,000 mm 102 W/m 5,3 C 7,7 C 6,4 km/h (2 Bft) 100 %
03.04.2014 08:30 8,1 C 7,7 C 8,1 C 86 % 1004,2 hPa 0,0 l/m 1,6 km/h (1 Bft) NO 45 0 min 0,000 mm 109 W/m 5,9 C 8,1 C 6,4 km/h (2 Bft) 100 %
03.04.2014 08:40 8,7 C 8,1 C 8,7 C 85 % 1004,1 hPa 0,0 l/m 0,0 km/h (0 Bft) SW 225 0 min 0,000 mm 116 W/m 6,3 C 8,7 C 6,4 km/h (2 Bft) 100 %
03.04.2014 08:50 9,1 C 8,7 C 9,1 C 83 % 1004,3 hPa 0,0 l/m 0,0 km/h (0 Bft) W-NW 292 0 min 0,000 mm 114 W/m 6,4 C 9,1 C 4,8 km/h (1 Bft) 100 %
03.04.2014 09:00 9,3 C 8,7 C 9,3 C 82 % 1004,2 hPa 0,0 l/m 0,5 km/h (0 Bft) N 360 0 min 0,027 mm 123 W/m 6,4 C 9,3 C 6,4 km/h (2 Bft) 99 %
03.04.2014 09:10 9,7 C 9,3 C 9,7 C 82 % 1004,5 hPa 0,0 l/m 0,0 km/h (0 Bft) N 5 0 min 0,000 mm 137 W/m 6,8 C 9,7 C 1,6 km/h (1 Bft) 100 %
03.04.2014 09:20 10,1 C 9,7 C 10,1 C 81 % 1004,3 hPa 0,0 l/m 1,4 km/h (1 Bft) N-NO 22 10 min 0,000 mm 211 W/m 7,0 C 10,1 C 4,8 km/h (1 Bft) 100 %
03.04.2014 09:30 10,9 C 10,1 C 10,9 C 81 % 1004,4 hPa 0,0 l/m 0,3 km/h (0 Bft) W-SW 255 10 min 0,000 mm 278 W/m 7,8 C 10,9 C 6,4 km/h (2 Bft) 100 %
03.04.2014 09:40 12,1 C 10,9 C 12,1 C 76 % 1004,5 hPa 0,0 l/m 0,0 km/h (0 Bft) NW 306 10 min 0,000 mm 334 W/m 8,0 C 12,1 C 1,6 km/h (1 Bft) 100 %
03.04.2014 09:50 12,8 C 12,1 C 12,8 C 73 % 1004,5 hPa 0,0 l/m 0,4 km/h (0 Bft) NO 34 10 min 0,000 mm 276 W/m 8,1 C 12,8 C 4,8 km/h (1 Bft) 100 %
03.04.2014 10:00 13,8 C 12,8 C 13,8 C 68 % 1004,8 hPa 0,0 l/m 1,3 km/h (1 Bft) S-SW 196 10 min 0,127 mm 330 W/m 8,0 C 13,8 C 4,8 km/h (1 Bft) 100 %
03.04.2014 10:10 14,4 C 13,8 C 14,4 C 67 % 1004,7 hPa 0,0 l/m 1,9 km/h (1 Bft) S-SW 203 10 min 0,000 mm 378 W/m 8,4 C 14,4 C 9,7 km/h (2 Bft) 100 %
03.04.2014 10:20 15,1 C 14,4 C 15,1 C 65 % 1004,7 hPa 0,0 l/m 1,5 km/h (1 Bft) S-SO 149 10 min 0,000 mm 403 W/m 8,6 C 15,1 C 9,7 km/h (2 Bft) 100 %
03.04.2014 10:30 15,2 C 15,1 C 15,3 C 60 % 1004,6 hPa 0,0 l/m 0,4 km/h (0 Bft) S-SO 156 10 min 0,000 mm 255 W/m 7,5 C 15,2 C 6,4 km/h (2 Bft) 100 %
03.04.2014 10:40 15,4 C 15,2 C 15,4 C 63 % 1004,9 hPa 0,0 l/m 0,9 km/h (0 Bft) S-SW 209 10 min 0,000 mm 334 W/m 8,4 C 15,4 C 4,8 km/h (1 Bft) 100 %
03.04.2014 10:50 15,8 C 15,4 C 15,8 C 61 % 1004,9 hPa 0,0 l/m 0,6 km/h (0 Bft) SW 221 10 min 0,000 mm 431 W/m 8,3 C 15,8 C 4,8 km/h (1 Bft) 100 %
03.04.2014 11:00 16,3 C 15,8 C 16,3 C 61 % 1005,0 hPa 0,0 l/m 0,0 km/h (0 Bft) S-SW 198 10 min 0,204 mm 446 W/m 8,8 C 16,3 C 1,6 km/h (1 Bft) 100 %
03.04.2014 11:10 16,8 C 16,3 C 16,8 C 58 % 1004,9 hPa 0,0 l/m 0,4 km/h (0 Bft) S-SW 193 10 min 0,000 mm 350 W/m 8,5 C 16,8 C 4,8 km/h (1 Bft) 91 %
03.04.2014 11:20 17,1 C 16,7 C 17,1 C 58 % 1004,7 hPa 0,0 l/m 1,2 km/h (1 Bft) S-SW 192 10 min 0,000 mm 431 W/m 8,8 C 17,1 C 8,0 km/h (2 Bft) 100 %
03.04.2014 11:30 17,7 C 17,1 C 17,7 C 55 % 1004,8 hPa 0,0 l/m 0,4 km/h (0 Bft) S 191 10 min 0,000 mm 577 W/m 8,5 C 17,7 C 6,4 km/h (2 Bft) 100 %
03.04.2014 11:40 18,2 C 17,7 C 18,2 C 53 % 1004,7 hPa 0,0 l/m 0,0 km/h (0 Bft) S 173 10 min 0,000 mm 571 W/m 8,5 C 18,2 C 1,6 km/h (1 Bft) 100 %
03.04.2014 11:50 18,9 C 18,2 C 18,9 C 57 % 1004,5 hPa 0,0 l/m 0,0 km/h (0 Bft) S 182 10 min 0,000 mm 512 W/m 10,2 C 18,9 C 1,6 km/h (1 Bft) 100 %
03.04.2014 12:00 19,4 C 18,9 C 19,4 C 52 % 1004,4 hPa 0,0 l/m 0,0 km/h (0 Bft) W 267 10 min 0,279 mm 508 W/m 9,3 C 19,4 C 1,6 km/h (1 Bft) 100 %
03.04.2014 12:10 20,1 C 19,4 C 20,1 C 49 % 1004,3 hPa 0,0 l/m 0,4 km/h (0 Bft) NW 326 10 min 0,000 mm 417 W/m 9,0 C 20,1 C 6,4 km/h (2 Bft) 100 %
03.04.2014 12:20 20,7 C 20,1 C 20,7 C 48 % 1004,2 hPa 0,0 l/m 0,6 km/h (0 Bft) W-NW 297 10 min 0,000 mm 390 W/m 9,3 C 20,7 C 9,7 km/h (2 Bft) 100 %
03.04.2014 12:30 21,1 C 20,7 C 21,1 C 45 % 1004,1 hPa 0,0 l/m 2,0 km/h (1 Bft) NW 325 10 min 0,000 mm 323 W/m 8,7 C 21,1 C 9,7 km/h (2 Bft) 99 %
03.04.2014 12:40 21,2 C 21,1 C 21,2 C 47 % 1004,2 hPa 0,0 l/m 0,0 km/h (0 Bft) N-NO 25 10 min 0,000 mm 295 W/m 9,4 C 21,2 C 1,6 km/h (1 Bft) 100 %
03.04.2014 12:50 21,4 C 21,2 C 21,4 C 45 % 1004,1 hPa 0,0 l/m 0,0 km/h (0 Bft) NO 45 10 min 0,000 mm 288 W/m 9,0 C 21,4 C 1,6 km/h (1 Bft) 100 %
03.04.2014 13:00 21,5 C 21,4 C 21,5 C 43 % 1004,0 hPa 0,0 l/m 0,7 km/h (0 Bft) O 88 10 min 0,229 mm 311 W/m 8,4 C 21,5 C 6,4 km/h (2 Bft) 100 %
03.04.2014 13:10 21,7 C 21,5 C 21,7 C 42 % 1004,0 hPa 0,0 l/m 0,0 km/h (0 Bft) NO 46 10 min 0,000 mm 529 W/m 8,2 C 21,7 C 1,6 km/h (1 Bft) 100 %
03.04.2014 13:20 22,4 C 21,7 C 22,4 C 45 % 1003,8 hPa 0,0 l/m 0,7 km/h (0 Bft) NO 42 10 min 0,000 mm 687 W/m 9,9 C 22,4 C 6,4 km/h (2 Bft) 99 %
03.04.2014 13:30 22,6 C 22,4 C 22,7 C 44 % 1003,8 hPa 0,0 l/m 3,0 km/h (1 Bft) O 94 10 min 0,000 mm 610 W/m 9,7 C 22,6 C 14,5 km/h (3 Bft) 100 %
03.04.2014 13:40 22,6 C 22,5 C 22,6 C 41 % 1003,7 hPa 0,0 l/m 1,6 km/h (1 Bft) W-SW 252 10 min 0,000 mm 633 W/m 8,7 C 22,6 C 8,0 km/h (2 Bft) 100 %
03.04.2014 13:50 22,7 C 22,6 C 22,8 C 40 % 1003,8 hPa 0,0 l/m 2,2 km/h (1 Bft) O-SO 112 10 min 0,000 mm 540 W/m 8,4 C 22,7 C 9,7 km/h (2 Bft) 100 %
03.04.2014 14:00 22,7 C 22,6 C 22,7 C 38 % 1003,7 hPa 0,0 l/m 1,6 km/h (1 Bft) N 360 10 min 0,355 mm 420 W/m 7,6 C 22,7 C 9,7 km/h (2 Bft) 100 %
03.04.2014 14:10 22,9 C 22,7 C 22,9 C 41 % 1003,8 hPa 0,0 l/m 0,6 km/h (0 Bft) O-SO 111 10 min 0,000 mm 355 W/m 8,9 C 22,9 C 9,7 km/h (2 Bft) 100 %
03.04.2014 14:20 22,8 C 22,7 C 22,9 C 39 % 1003,7 hPa 0,0 l/m 1,5 km/h (1 Bft) NO 38 10 min 0,000 mm 504 W/m 8,1 C 22,8 C 9,7 km/h (2 Bft) 100 %
03.04.2014 14:30 23,1 C 22,8 C 23,1 C 41 % 1003,8 hPa 0,0 l/m 1,4 km/h (1 Bft) S 175 10 min 0,000 mm 536 W/m 9,1 C 23,1 C 9,7 km/h (2 Bft) 100 %
03.04.2014 14:40 22,8 C 22,8 C 23,1 C 37 % 1003,7 hPa 0,0 l/m 4,8 km/h (1 Bft) O 88 10 min 0,000 mm 601 W/m 7,3 C 22,8 C 16,1 km/h (3 Bft) 100 %
03.04.2014 14:50 22,7 C 22,7 C 22,8 C 38 % 1003,7 hPa 0,0 l/m 2,9 km/h (1 Bft) W 265 10 min 0,000 mm 603 W/m 7,6 C 22,7 C 12,9 km/h (3 Bft) 100 %
03.04.2014 15:00 22,8 C 22,7 C 22,8 C 37 % 1003,5 hPa 0,0 l/m 3,2 km/h (1 Bft) O 85 10 min 0,356 mm 612 W/m 7,3 C 22,8 C 16,1 km/h (3 Bft) 100 %
03.04.2014 15:10 23,0 C 22,7 C 23,0 C 41 % 1003,4 hPa 0,0 l/m 1,4 km/h (1 Bft) O-NO 74 10 min 0,000 mm 596 W/m 9,0 C 23,0 C 11,3 km/h (2 Bft) 100 %
03.04.2014 15:20 23,5 C 23,0 C 23,5 C 37 % 1003,4 hPa 0,0 l/m 2,1 km/h (1 Bft) N-NW 344 10 min 0,000 mm 594 W/m 8,0 C 23,5 C 9,7 km/h (2 Bft) 100 %
03.04.2014 15:30 23,5 C 23,5 C 23,6 C 39 % 1003,4 hPa 0,0 l/m 1,0 km/h (0 Bft) N 9 10 min 0,000 mm 575 W/m 8,7 C 23,5 C 8,0 km/h (2 Bft) 100 %
03.04.2014 15:40 23,3 C 23,3 C 23,7 C 37 % 1003,4 hPa 0,0 l/m 2,7 km/h (1 Bft) SO 138 10 min 0,000 mm 554 W/m 7,8 C 23,3 C 14,5 km/h (3 Bft) 100 %
03.04.2014 15:50 23,6 C 23,3 C 23,6 C 37 % 1003,1 hPa 0,0 l/m 1,4 km/h (1 Bft) W-NW 286 10 min 0,000 mm 526 W/m 8,0 C 23,6 C 9,7 km/h (2 Bft) 100 %
03.04.2014 16:00 24,1 C 23,6 C 24,1 C 35 % 1003,1 hPa 0,0 l/m 0,4 km/h (0 Bft) NO 53 10 min 0,381 mm 504 W/m 7,7 C 24,1 C 6,4 km/h (2 Bft) 100 %
03.04.2014 16:10 24,1 C 24,1 C 24,1 C 34 % 1003,1 hPa 0,0 l/m 0,8 km/h (0 Bft) O 89 10 min 0,000 mm 480 W/m 7,2 C 24,1 C 8,0 km/h (2 Bft) 100 %
03.04.2014 16:20 24,1 C 24,1 C 24,1 C 33 % 1003,1 hPa 0,0 l/m 1,6 km/h (1 Bft) O-NO 78 10 min 0,000 mm 441 W/m 6,8 C 24,1 C 8,0 km/h (2 Bft) 100 %
03.04.2014 16:30 23,7 C 23,7 C 24,1 C 34 % 1003,1 hPa 0,0 l/m 1,5 km/h (1 Bft) O 95 10 min 0,000 mm 420 W/m 6,9 C 23,7 C 14,5 km/h (3 Bft) 100 %
03.04.2014 16:40 23,3 C 23,3 C 23,7 C 36 % 1003,1 hPa 0,0 l/m 0,8 km/h (0 Bft) NO 56 10 min 0,000 mm 232 W/m 7,4 C 23,3 C 8,0 km/h (2 Bft) 100 %
03.04.2014 16:50 23,5 C 23,3 C 23,5 C 35 % 1003,0 hPa 0,0 l/m 0,3 km/h (0 Bft) SO 134 10 min 0,000 mm 153 W/m 7,1 C 23,5 C 9,7 km/h (2 Bft) 100 %
03.04.2014 17:00 23,4 C 23,4 C 23,6 C 36 % 1003,0 hPa 0,0 l/m 0,6 km/h (0 Bft) N-NW 346 10 min 0,000 mm 153 W/m 7,5 C 23,4 C 6,4 km/h (2 Bft) 100 %
03.04.2014 17:10 23,1 C 23,1 C 23,4 C 35 % 1002,9 hPa 0,0 l/m 0,3 km/h (0 Bft) N 9 10 min 0,228 mm 165 W/m 6,8 C 23,1 C 6,4 km/h (2 Bft) 100 %
03.04.2014 17:20 22,9 C 22,9 C 23,1 C 35 % 1002,9 hPa 0,0 l/m 0,3 km/h (0 Bft) SW 219 0 min 0,000 mm 141 W/m 6,6 C 22,9 C 6,4 km/h (2 Bft) 100 %
03.04.2014 17:30 22,4 C 22,4 C 22,9 C 37 % 1002,9 hPa 0,0 l/m 2,3 km/h (1 Bft) O 88 0 min 0,000 mm 97 W/m 7,0 C 22,4 C 9,7 km/h (2 Bft) 100 %
03.04.2014 17:40 22,1 C 22,1 C 22,4 C 37 % 1002,9 hPa 0,0 l/m 0,0 km/h (0 Bft) SO 137 0 min 0,000 mm 95 W/m 6,7 C 22,1 C 1,6 km/h (1 Bft) 100 %
03.04.2014 17:50 21,8 C 21,8 C 22,1 C 37 % 1003,0 hPa 0,0 l/m 0,0 km/h (0 Bft) SO 125 0 min 0,000 mm 91 W/m 6,5 C 21,8 C 1,6 km/h (1 Bft) 100 %
03.04.2014 18:00 21,7 C 21,7 C 21,8 C 39 % 1003,0 hPa 0,0 l/m 0,0 km/h (0 Bft) O-SO 113 0 min 0,102 mm 84 W/m 7,1 C 21,7 C 1,6 km/h (1 Bft) 100 %
03.04.2014 18:10 21,6 C 21,6 C 21,7 C 39 % 1003,0 hPa 0,0 l/m 0,0 km/h (0 Bft) O 96 0 min 0,000 mm 83 W/m 7,0 C 21,6 C 1,6 km/h (1 Bft) 100 %
03.04.2014 18:20 21,5 C 21,5 C 21,6 C 39 % 1003,0 hPa 0,0 l/m 0,0 km/h (0 Bft) O 81 0 min 0,000 mm 72 W/m 7,0 C 21,5 C 1,6 km/h (1 Bft) 100 %
03.04.2014 18:30 21,3 C 21,3 C 21,5 C 39 % 1003,1 hPa 0,0 l/m 0,9 km/h (0 Bft) O-SO 113 0 min 0,000 mm 60 W/m 6,8 C 21,3 C 8,0 km/h (2 Bft) 100 %
03.04.2014 18:40 21,2 C 21,2 C 21,3 C 39 % 1003,1 hPa 0,0 l/m 0,0 km/h (0 Bft) O-SO 113 0 min 0,000 mm 51 W/m 6,7 C 21,2 C 1,6 km/h (1 Bft) 100 %
03.04.2014 18:50 21,0 C 21,0 C 21,2 C 39 % 1003,1 hPa 0,0 l/m 0,6 km/h (0 Bft) O-SO 105 0 min 0,000 mm 46 W/m 6,5 C 21,0 C 8,0 km/h (2 Bft) 100 %
03.04.2014 19:00 20,8 C 20,8 C 21,0 C 40 % 1003,1 hPa 0,0 l/m 0,2 km/h (0 Bft) O-NO 60 0 min 0,051 mm 39 W/m 6,7 C 20,8 C 6,4 km/h (2 Bft) 100 %
03.04.2014 19:10 20,6 C 20,6 C 20,8 C 40 % 1003,1 hPa 0,0 l/m 0,3 km/h (0 Bft) O-SO 111 0 min 0,000 mm 32 W/m 6,5 C 20,6 C 4,8 km/h (1 Bft) 100 %
03.04.2014 19:20 20,4 C 20,4 C 20,6 C 40 % 1003,1 hPa 0,0 l/m 0,0 km/h (0 Bft) O-NO 76 0 min 0,000 mm 21 W/m 6,3 C 20,4 C 1,6 km/h (1 Bft) 100 %
03.04.2014 19:30 20,2 C 20,2 C 20,4 C 41 % 1003,3 hPa 0,0 l/m 0,5 km/h (0 Bft) NO 34 0 min 0,000 mm 12 W/m 6,5 C 20,2 C 4,8 km/h (1 Bft) 100 %
03.04.2014 19:40 19,9 C 19,9 C 20,2 C 44 % 1003,5 hPa 0,0 l/m 0,0 km/h (0 Bft) NO 34 0 min 0,000 mm 7 W/m 7,3 C 19,9 C 1,6 km/h (1 Bft) 100 %
03.04.2014 19:50 19,4 C 19,4 C 19,9 C 44 % 1003,5 hPa 0,0 l/m 0,2 km/h (0 Bft) NO 34 0 min 0,000 mm 0 W/m 6,8 C 19,4 C 3,2 km/h (1 Bft) 100 %
03.04.2014 20:00 19,1 C 19,1 C 19,4 C 45 % 1003,5 hPa 0,0 l/m 0,2 km/h (0 Bft) NO 51 0 min 0,025 mm 0 W/m 6,9 C 19,1 C 3,2 km/h (1 Bft) 100 %
03.04.2014 20:10 18,7 C 18,7 C 19,1 C 45 % 1003,5 hPa 0,0 l/m 0,0 km/h (0 Bft) NO 51 0 min 0,000 mm 0 W/m 6,5 C 18,7 C 1,6 km/h (1 Bft) 100 %
03.04.2014 20:20 18,4 C 18,4 C 18,7 C 46 % 1003,6 hPa 0,0 l/m 0,4 km/h (0 Bft) NO 51 0 min 0,000 mm 0 W/m 6,6 C 18,4 C 3,2 km/h (1 Bft) 99 %
03.04.2014 20:30 17,9 C 17,9 C 18,4 C 49 % 1003,6 hPa 0,0 l/m 0,5 km/h (0 Bft) NO 51 0 min 0,000 mm 0 W/m 7,0 C 17,9 C 3,2 km/h (1 Bft) 100 %
03.04.2014 20:40 17,3 C 17,3 C 17,9 C 51 % 1003,7 hPa 0,0 l/m 0,0 km/h (0 Bft) NO 51 0 min 0,000 mm 0 W/m 7,1 C 17,3 C 1,6 km/h (1 Bft) 100 %
03.04.2014 20:50 16,7 C 16,7 C 17,3 C 53 % 1003,7 hPa 0,0 l/m 0,0 km/h (0 Bft) NO 51 0 min 0,000 mm 0 W/m 7,1 C 16,7 C 1,6 km/h (1 Bft) 100 %
03.04.2014 21:00 16,3 C 16,3 C 16,7 C 54 % 1003,9 hPa 0,0 l/m 0,4 km/h (0 Bft) NO 51 0 min 0,000 mm 0 W/m 7,0 C 16,3 C 3,2 km/h (1 Bft) 100 %
03.04.2014 21:10 15,9 C 15,9 C 16,3 C 55 % 1004,0 hPa 0,0 l/m 0,0 km/h (0 Bft) NO 45 0 min 0,000 mm 0 W/m 6,9 C 15,9 C 1,6 km/h (1 Bft) 100 %
03.04.2014 21:20 15,6 C 15,6 C 15,9 C 56 % 1004,1 hPa 0,0 l/m 0,0 km/h (0 Bft) NO 45 0 min 0,000 mm 0 W/m 6,9 C 15,6 C 1,6 km/h (1 Bft) 100 %
03.04.2014 21:30 15,3 C 15,3 C 15,6 C 56 % 1004,2 hPa 0,0 l/m 0,0 km/h (0 Bft) NO 45 0 min 0,000 mm 0 W/m 6,6 C 15,3 C 1,6 km/h (1 Bft) 100 %
03.04.2014 21:40 15,1 C 15,1 C 15,3 C 57 % 1004,1 hPa 0,0 l/m 0,0 km/h (0 Bft) NO 45 0 min 0,000 mm 0 W/m 6,6 C 15,1 C 1,6 km/h (1 Bft) 100 %
03.04.2014 21:50 15,1 C 15,1 C 15,1 C 57 % 1004,0 hPa 0,0 l/m 0,0 km/h (0 Bft) NO 45 0 min 0,000 mm 0 W/m 6,6 C 15,1 C 1,6 km/h (1 Bft) 100 %
03.04.2014 22:00 14,9 C 14,9 C 15,1 C 58 % 1004,0 hPa 0,0 l/m 0,0 km/h (0 Bft) NO 45 0 min 0,025 mm 0 W/m 6,7 C 14,9 C 4,8 km/h (1 Bft) 100 %
03.04.2014 22:10 14,8 C 14,8 C 14,9 C 58 % 1004,0 hPa 0,0 l/m 0,0 km/h (0 Bft) NO 45 0 min 0,000 mm 0 W/m 6,6 C 14,8 C 4,8 km/h (1 Bft) 100 %
03.04.2014 22:20 14,8 C 14,8 C 14,8 C 58 % 1004,0 hPa 0,0 l/m 0,0 km/h (0 Bft) NO 45 0 min 0,000 mm 0 W/m 6,6 C 14,8 C 3,2 km/h (1 Bft) 100 %
03.04.2014 22:30 14,7 C 14,7 C 14,8 C 58 % 1003,9 hPa 0,0 l/m 0,0 km/h (0 Bft) NO 45 0 min 0,000 mm 0 W/m 6,5 C 14,7 C 1,6 km/h (1 Bft) 100 %
03.04.2014 22:40 14,6 C 14,6 C 14,7 C 58 % 1003,9 hPa 0,0 l/m 0,0 km/h (0 Bft) NO 45 0 min 0,000 mm 0 W/m 6,4 C 14,6 C 4,8 km/h (1 Bft) 100 %
03.04.2014 22:50 14,5 C 14,5 C 14,6 C 58 % 1003,9 hPa 0,0 l/m 0,0 km/h (0 Bft) NO 45 0 min 0,000 mm 0 W/m 6,3 C 14,5 C 1,6 km/h (1 Bft) 100 %
03.04.2014 23:00 14,6 C 14,5 C 14,6 C 57 % 1003,9 hPa 0,0 l/m 0,0 km/h (0 Bft) NO 45 0 min 0,025 mm 0 W/m 6,2 C 14,6 C 1,6 km/h (1 Bft) 100 %
03.04.2014 23:10 14,8 C 14,7 C 14,8 C 57 % 1004,0 hPa 0,0 l/m 0,0 km/h (0 Bft) NO 45 0 min 0,000 mm 0 W/m 6,4 C 14,8 C 1,6 km/h (1 Bft) 100 %
03.04.2014 23:20 14,9 C 14,8 C 14,9 C 56 % 1004,1 hPa 0,0 l/m 0,0 km/h (0 Bft) NO 45 0 min 0,000 mm 0 W/m 6,2 C 14,9 C 4,8 km/h (1 Bft) 100 %
03.04.2014 23:30 14,8 C 14,8 C 14,9 C 56 % 1004,2 hPa 0,0 l/m 1,6 km/h (1 Bft) NO 45 0 min 0,000 mm 0 W/m 6,1 C 14,8 C 4,8 km/h (1 Bft) 100 %
03.04.2014 23:40 14,7 C 14,7 C 14,8 C 57 % 1004,2 hPa 0,0 l/m 0,0 km/h (0 Bft) NO 45 0 min 0,000 mm 0 W/m 6,3 C 14,7 C 4,8 km/h (1 Bft) 100 %
03.04.2014 23:50 14,7 C 14,7 C 14,7 C 57 % 1004,3 hPa 0,0 l/m 0,0 km/h (0 Bft) NO 45 0 min 0,000 mm 0 W/m 6,3 C 14,7 C 4,8 km/h (1 Bft) 100 %
_ Min-Zeit 07:10 07:10 07:20 16:20 17:10 - 00:20 - - - - - 07:10 07:10 01:40 00:40
Minimum _ 5,9 C 5,9 C 5,9 C 33 % 1002,9 hPa - 0,0 km/h (0 Bft) - - - - - 3,7 C 5,9 C 0,0 km/h (0 Bft) 91 %
_ Max-Zeit 16:00 16:10 16:00 07:30 11:00 00:00 14:40 - - 09:20 16:00 13:20 11:50 16:00 14:40 00:50
Maximum _ 24,1 C 24,1 C 24,1 C 87 % 1005,0 hPa 0,0 l/m 4,8 km/h
O (1 Bft)
- - 10 min 0,381 mm 687 W/m 10,2 C 24,1 C 16,1 km/h
SO (3 Bft)
100 %
Durchschnitt _ 14,8 C 14,6 C 14,9 C 61 % 1003,9 hPa #0,0 l/m 0,5 km/h (0 Bft) O - #8:00 h #2,539 mm 297 W/m 6,5 C 14,8 C 4,5 km/h (1 Bft) 100 %
PRIVATE WETTERSTATION BILLIGHEIM-ALLFELD - www.neckar-odenwald-wetter.de - Holger Sonntag